[[{"header":{"parameterUnit":"m.s-1","parameterCategory":1,"la1":30.2991,"la2":30.254,"lo1":-89.0895,"lo2":-89.0444,"dy":0.0017,"dx":0.0017,"nx":28,"ny":28,"refTime":"2024-05-04T03:00:00:Z","depth":0,"parameterNumber":2,"parameterNumberName":"U-component_of_WINDS"},"data":[0,0,0,0,0,0,0,0,0,0,0,0,0,0,0,0,0,0,0,0,0,0,0,0,0,0,0,0,0,0,0,0,0,0,0,0,0,0,0,0,0,0,0,0,0,0,0,0,0,0,0,0,0,0,0,0,0,0,-2.5926,-2.5926,0,-2.5942,-2.5942,-2.5942,-2.5891,-2.5889,-2.5888,-2.5886,-2.5901,-2.5903,-2.5904,0,0,0,0,0,0,0,0,0,0,0,0,0,-2.5849,-2.5851,-2.5926,-2.5926,-2.5926,-2.5942,-2.5942,-2.5942,-2.5891,-2.5889,-2.5887,-2.5885,-2.59,-2.5902,-2.5905,0,0,0,0,0,0,0,0,0,0,0,0,0,-2.5875,-2.5851,-2.5926,-2.5902,-2.5901,-2.5942,-2.5942,-2.5942,-2.5891,-2.5889,-2.5887,-2.5885,-2.59,-2.5902,-2.5905,-2.5969,0,0,-2.5913,-2.5915,0,0,0,0,0,0,0,0,-2.5874,-2.5878,-2.5906,-2.5904,-2.5902,-2.5912,-2.592,-2.5951,-2.5892,-2.5895,-2.5886,-2.5883,-2.5906,-2.5908,-2.5916,-2.5969,-2.597,-2.5914,-2.5915,-2.5916,-2.5917,0,0,0,0,0,0,0,-2.5872,-2.5877,-2.5932,-2.5906,-2.5904,-2.5891,-2.5892,-2.5926,-2.5913,-2.5894,-2.5891,-2.5893,-2.5905,-2.5914,-2.5916,-2.597,-2.5914,-2.5916,-2.5918,-2.5919,-2.6075,-2.6078,0,0,0,0,0,0,-2.5874,-2.5876,-2.5931,-2.5932,-2.5882,-2.5894,-2.5895,-2.5911,-2.5913,-2.5911,-2.5895,-2.5891,-2.591,-2.5913,-2.5917,-2.599,-2.5916,-2.5919,-2.5921,-2.6073,-2.6076,-2.6078,0,0,0,0,0,0,-2.5872,-2.5879,-2.5931,-2.5903,-2.5909,-2.5898,-2.5916,-2.5913,-2.5921,-2.5914,-2.5911,-2.5907,-2.5909,-2.5913,-2.5956,-2.599,-2.592,-2.5923,-2.607,-2.6074,-2.6077,-2.6138,0,0,0,0,0,0,-2.587,-2.5879,-2.5903,-2.5904,-2.5911,-2.597,-2.5918,-2.5915,-2.5927,-2.5921,-2.5924,-2.5922,-2.5907,-2.5952,-2.5959,-2.5992,-2.5925,-2.6067,-2.6071,-2.6076,-2.6133,-2.6144,-2.6153,0,0,0,0,0,-2.5868,-2.592,-2.5905,-2.5912,-2.5941,-2.5972,-2.5976,-2.5958,-2.593,-2.5954,-2.5949,-2.5922,-2.5986,-2.5957,-2.5964,-2.5999,-2.6064,-2.607,-2.6075,-2.6129,-2.6142,-2.6153,0,0,0,0,0,0,-2.5922,-2.5919,-2.5903,-2.5957,-2.5965,-2.5964,-2.5993,-2.5972,-2.5989,-2.5983,-2.596,-2.5961,-2.6008,-2.6008,-2.5976,-2.6061,-2.602,-2.6027,-2.6058,-2.607,-2.608,-2.6078,-2.5927,0,0,0,0,0,-2.594,-2.5967,-2.5963,-2.6011,-2.6016,-2.6004,-2.6017,-2.6003,-2.6011,-2.6014,-2.6012,-2.602,-2.6042,-2.6056,-2.6076,-2.6134,-2.6133,-2.6162,-2.6171,-2.618,-2.6185,-2.6215,-2.6227,-2.6097,-2.6097,-2.6097,0,0,-2.5978,-2.598,-2.5998,-2.6022,-2.6027,-2.6054,-2.6007,-2.6038,-2.6058,-2.6018,-2.6058,-2.6058,-2.6065,-2.6116,-2.6138,-2.6117,-2.6222,-2.6187,-2.6193,-2.6195,-2.6222,-2.6234,-2.6245,-2.6101,-2.61,-2.6099,0,0,-2.606,-2.6065,-2.6105,-2.6111,-2.612,-2.6112,-2.6122,-2.6124,-2.6122,-2.6162,-2.6133,-2.6156,-2.6194,-2.6201,-2.6209,-2.6295,-2.6271,-2.6302,-2.6352,-2.6382,-2.6392,-2.6401,-2.643,-2.6441,-2.6309,-2.6309,-2.6309,0,-2.6106,-2.6146,-2.6128,-2.6161,-2.6172,-2.6139,-2.6179,-2.6185,-2.62,-2.6208,-2.6185,-2.6232,-2.6235,-2.6286,-2.6307,-2.6316,-2.6325,-2.6301,-2.6392,-2.6401,-2.6409,-2.6436,-2.6448,-2.6313,-2.6312,-2.6312,-2.6311,0,-2.6201,-2.623,-2.6261,-2.6276,-2.6291,-2.6327,-2.6314,-2.6331,-2.6316,-2.6311,-2.6352,-2.6355,-2.6374,-2.6385,-2.6371,-2.6435,-2.6421,-2.6396,-2.6354,-2.6425,-2.6451,-2.6461,-2.6318,-2.6316,-2.6315,-2.6314,0,0,-2.6316,-2.6322,-2.6333,-2.634,-2.6347,-2.6368,-2.6403,-2.6423,-2.6437,-2.6449,-2.6477,-2.6511,-2.6487,-2.6497,-2.6483,-2.6509,-2.6575,-2.648,-2.648,-2.6496,-2.6644,-2.6662,-2.6674,-2.656,-2.6562,-2.6564,-2.6643,0,-2.6396,-2.6455,-2.6441,-2.65,-2.6525,-2.6495,-2.6525,-2.6533,-2.6529,-2.6549,-2.6545,-2.6568,-2.6537,-2.6542,-2.6567,-2.6562,-2.6604,-2.6556,-2.6584,-2.6586,-2.6581,-2.6688,-2.6706,-2.6781,-2.6653,-2.6655,-2.6656,0,-2.6496,-2.6512,-2.6574,-2.6577,-2.6587,-2.6615,-2.6631,-2.6652,-2.666,-2.6655,-2.6667,-2.6648,-2.6681,-2.6642,-2.6687,-2.6655,-2.6666,-2.6666,-2.6668,-2.6668,-2.6623,-2.6689,-2.6804,-2.6815,-2.6672,-2.667,-2.6669,0,-2.6572,-2.6609,-2.665,-2.6657,-2.6662,-2.6682,-2.6685,-2.6691,-2.6704,-2.6718,-2.6726,-2.6745,-2.6754,-2.6769,-2.6756,-2.6728,-2.6803,-2.6762,-2.6799,-2.6799,-2.6814,-2.6813,-2.693,-2.6825,-2.6825,-2.6824,-2.6824,0,-2.6661,-2.67,-2.6684,-2.6709,-2.6752,-2.6735,-2.6777,-2.6776,-2.6782,-2.6806,-2.6781,-2.6805,-2.6786,-2.6808,-2.6798,-2.6836,-2.6841,-2.6838,-2.6834,-2.6839,-2.6839,-2.6844,-2.6837,-2.6827,-2.6827,-2.6826,-2.6826,0,-2.6752,-2.6743,-2.6786,-2.6788,-2.6789,-2.682,-2.6821,-2.6845,-2.684,-2.687,-2.6877,-2.6868,-2.6892,-2.6881,-2.6906,-2.69,-2.6949,-2.6939,-2.6946,-2.6943,-2.6979,-2.6975,-2.7102,-2.7118,-2.7004,-2.7005,-2.7006,0,-2.6808,-2.6837,-2.6842,-2.6857,-2.6862,-2.6886,-2.6899,-2.6884,-2.6898,-2.691,-2.6932,-2.6954,-2.697,-2.701,-2.7006,-2.7025,-2.7015,-2.7058,-2.7017,-2.7021,-2.7013,-2.7011,-2.7013,-2.7066,-2.7067,-2.7068,-2.7069,0,-2.6909,-2.6903,-2.6923,-2.6942,-2.6959,-2.6973,-2.6984,-2.6998,-2.6983,-2.7,-2.7025,-2.7038,-2.7064,-2.7086,-2.7103,-2.7105,-2.7084,-2.7082,-2.7091,-2.7095,-2.7097,-2.7095,-2.6966,-2.7079,-2.7078,-2.7077,-2.7077,-2.7076,-2.6983,-2.7007,-2.7014,-2.7037,-2.7045,-2.7057,-2.7078,-2.7076,-2.7097,-2.7117,-2.7107,-2.7135,-2.7142,-2.7163,-2.7168,-2.719,-2.7173,-2.7186,-2.7189,-2.7192,-2.7196,-2.7096,-2.7193,-2.7193,-2.7193,-2.7192,-2.7192,0,-2.7081,-2.7085,-2.7106,-2.7123,-2.7142,-2.7122,-2.7134,-2.715,-2.7176,-2.7185,-2.7202,-2.723,-2.7251,-2.7249,-2.7269,-2.7286,-2.7277,-2.7292,-2.7289,-2.729,-2.7212,-2.7201,-2.7299,-2.7299,-2.7298,-2.7298,-2.7298,-2.7298,-2.7134,-2.7173,-2.7169,-2.7211,-2.7215,-2.7242,-2.7251,-2.7261,-2.7268,-2.7301,-2.7318,-2.7318,-2.7322,-2.7342,-2.736,-2.7359,-2.7366,-2.7384,-2.7379,-2.7306,-2.7295,-2.7285,-2.7275,-2.7386,-2.7386,-2.7455,-2.7456,-2.7456]},{"header":{"parameterUnit":"m.s-1","parameterCategory":1,"la1":30.2991,"la2":30.254,"lo1":-89.0895,"lo2":-89.0444,"dy":0.0017,"dx":0.0017,"nx":28,"ny":28,"refTime":"2024-05-04T03:00:00:Z","depth":0,"parameterNumber":3,"parameterNumberName":"V-component_of_WINDS"},"data":[0,0,0,0,0,0,0,0,0,0,0,0,0,0,0,0,0,0,0,0,0,0,0,0,0,0,0,0,0,0,0,0,0,0,0,0,0,0,0,0,0,0,0,0,0,0,0,0,0,0,0,0,0,0,0,0,0,0,2.8565,2.8565,0,2.8531,2.853,2.853,2.8475,2.8474,2.8473,2.8472,2.8437,2.8437,2.8437,0,0,0,0,0,0,0,0,0,0,0,0,0,2.8584,2.8584,2.8565,2.8565,2.8565,2.8531,2.853,2.853,2.8475,2.8474,2.8472,2.8471,2.8437,2.8437,2.8437,0,0,0,0,0,0,0,0,0,0,0,0,0,2.8565,2.8584,2.8565,2.8533,2.853,2.8531,2.853,2.853,2.8475,2.8474,2.8472,2.8471,2.8437,2.8437,2.8437,2.8468,0,0,2.8437,2.8437,0,0,0,0,0,0,0,0,2.8567,2.8565,2.8538,2.8535,2.8532,2.8506,2.8524,2.8509,2.8476,2.8496,2.8472,2.847,2.8461,2.8459,2.8456,2.8466,2.8465,2.8437,2.8437,2.8437,2.8437,0,0,0,0,0,0,0,2.8568,2.8566,2.8552,2.8538,2.8534,2.852,2.8516,2.8521,2.8487,2.8494,2.849,2.8487,2.8459,2.8456,2.8455,2.8464,2.8437,2.8437,2.8437,2.8437,2.8496,2.8497,0,0,0,0,0,0,2.8574,2.8567,2.8553,2.8551,2.8546,2.8521,2.8516,2.8515,2.8487,2.8481,2.8488,2.8484,2.8457,2.8455,2.8453,2.8485,2.8437,2.8437,2.8437,2.8494,2.8496,2.8498,0,0,0,0,0,0,2.8575,2.8573,2.8554,2.8558,2.8554,2.8522,2.8522,2.8516,2.8512,2.8483,2.8476,2.8491,2.8456,2.8453,2.8464,2.8483,2.8437,2.8437,2.8492,2.8495,2.8497,2.855,0,0,0,0,0,0,2.8575,2.8574,2.8585,2.8559,2.8555,2.8565,2.8523,2.8516,2.8513,2.8507,2.8484,2.8478,2.8454,2.8464,2.8464,2.8482,2.8437,2.849,2.8493,2.8496,2.8547,2.8554,2.8561,0,0,0,0,0,2.8576,2.8602,2.8586,2.8584,2.8568,2.8567,2.8564,2.8535,2.8514,2.8525,2.8506,2.8479,2.8482,2.8466,2.8465,2.8484,2.8489,2.8493,2.8496,2.8543,2.8553,2.856,0,0,0,0,0,0,2.8631,2.8598,2.8579,2.8597,2.8585,2.8557,2.857,2.8547,2.854,2.8536,2.8501,2.8496,2.8511,2.8499,2.8482,2.8511,2.8481,2.8485,2.8518,2.8526,2.8533,2.8534,2.8437,0,0,0,0,0,2.8645,2.8647,2.8618,2.8637,2.8632,2.8602,2.8601,2.858,2.8566,2.856,2.8542,2.853,2.8527,2.8527,2.8523,2.8546,2.8539,2.8558,2.8565,2.8571,2.8574,2.8583,2.859,2.8509,2.8509,2.8509,0,0,2.8675,2.8657,2.866,2.8647,2.8635,2.8638,2.8598,2.8603,2.8604,2.8561,2.8569,2.8556,2.854,2.8556,2.8562,2.8546,2.8595,2.8576,2.8581,2.858,2.8587,2.8595,2.8602,2.8511,2.8511,2.8511,0,0,2.8728,2.8716,2.8729,2.8718,2.87,2.868,2.8684,2.866,2.8649,2.8657,2.8624,2.8626,2.8623,2.8612,2.8607,2.8657,2.8632,2.8658,2.8693,2.8702,2.8708,2.8714,2.8729,2.8736,2.8661,2.8661,2.8661,0,2.8766,2.8768,2.8738,2.8744,2.8739,2.8701,2.8714,2.8705,2.8688,2.8685,2.8668,2.8663,2.865,2.8662,2.8674,2.8672,2.8673,2.8658,2.871,2.8715,2.872,2.8734,2.874,2.8664,2.8664,2.8663,2.8663,0,2.8815,2.8817,2.883,2.8813,2.881,2.882,2.8791,2.8791,2.8771,2.8753,2.8761,2.8745,2.8736,2.8738,2.8719,2.8747,2.8738,2.8716,2.8685,2.8731,2.8743,2.8749,2.8668,2.8667,2.8666,2.8665,0,0,2.89,2.8867,2.8872,2.8863,2.8842,2.8842,2.8851,2.8842,2.8842,2.8832,2.8837,2.8836,2.8815,2.8809,2.8788,2.8797,2.8835,2.8774,2.8773,2.8783,2.8863,2.8877,2.8884,2.8819,2.882,2.8821,2.8863,0,2.8946,2.8957,2.8931,2.8948,2.8948,2.8913,2.892,2.8907,2.8891,2.889,2.8872,2.8871,2.8845,2.8841,2.8848,2.8829,2.885,2.8826,2.8822,2.8822,2.8824,2.8891,2.8907,2.8947,2.8868,2.8869,2.887,0,2.9002,2.8994,2.9011,2.8987,2.8987,2.8993,2.8982,2.8982,2.8967,2.8955,2.8948,2.8924,2.893,2.8902,2.8909,2.8893,2.889,2.8881,2.8882,2.8878,2.8847,2.8886,2.8959,2.8964,2.8878,2.8877,2.8877,0,2.9058,2.9052,2.9061,2.9055,2.9029,2.9034,2.9024,2.9007,2.9004,2.8995,2.8992,2.8985,2.898,2.8975,2.895,2.8932,2.8958,2.8929,2.8947,2.8947,2.8951,2.8951,2.9022,2.8955,2.8955,2.8955,2.8955,0,2.9112,2.9123,2.9086,2.9091,2.9102,2.9073,2.9085,2.9071,2.9057,2.9058,2.9028,2.903,2.8998,2.8996,2.8977,2.8984,2.8983,2.8972,2.8966,2.8973,2.8974,2.8969,2.8964,2.8956,2.8956,2.8956,2.8955,0,2.9175,2.9151,2.9158,2.9133,2.9127,2.9136,2.9115,2.9118,2.9101,2.9103,2.9102,2.9075,2.9071,2.9046,2.9038,2.9024,2.9038,2.9028,2.9042,2.9038,2.9056,2.9054,2.9124,2.913,2.9062,2.9063,2.9063,0,2.9209,2.9217,2.9192,2.9191,2.9182,2.9181,2.9176,2.9148,2.9145,2.9129,2.9134,2.9129,2.9122,2.9118,2.9097,2.909,2.9078,2.9104,2.9077,2.9083,2.9075,2.9074,2.9074,2.9108,2.9109,2.911,2.911,0,2.9271,2.9259,2.9254,2.9245,2.9242,2.9234,2.9224,2.9224,2.9193,2.9192,2.9187,2.9183,2.9173,2.9167,2.9157,2.9145,2.9122,2.9119,2.9123,2.9128,2.9135,2.9129,2.9054,2.9117,2.9116,2.9116,2.9116,2.9115,2.9319,2.9323,2.9306,2.9302,2.9292,2.9283,2.9285,2.9268,2.9264,2.9254,2.9238,2.9236,2.9221,2.9204,2.9195,2.9192,2.9179,2.9184,2.9185,2.9186,2.9189,2.9138,2.9191,2.9191,2.919,2.919,2.919,0,2.9376,2.9364,2.9361,2.9347,2.9344,2.9324,2.9312,2.931,2.9309,2.9297,2.9291,2.9286,2.928,2.9259,2.9251,2.9253,2.9242,2.9252,2.925,2.9247,2.9203,2.9199,2.926,2.926,2.926,2.926,2.926,2.926,2.9406,2.9412,2.9398,2.9398,2.9386,2.9383,2.9378,2.937,2.936,2.9355,2.935,2.9337,2.9321,2.9312,2.9305,2.9299,2.9296,2.9309,2.9299,2.9257,2.925,2.9244,2.924,2.9309,2.9309,2.9343,2.9343,2.9344]}]]